This demonstration page uses our WeatherBlox Daily Observations layout. Learn more.

Left ArrowRight Arrow

Hourly Observations for February 2, 2020

Temp ( °F °C ) Dew Point ( °F °C ) Humidity (%) Winds ( mph kmh ) Pressure ( in mb ) Visibility ( mi km ) Precip ( " mm )
12:56 am 00:56 Clear 47 8.3 28 -2.2 48 48 W 16 26 29.83 1010 10 16 0.00 0.00
1:56 am 01:56 Clear 47 8.3 28 -2.2 48 48 W 15 24 29.80 1009 10 16 0.00 0.00
2:56 am 02:56 Clear 45 7.2 28 -2.2 52 52 W 14 22 29.81 1009 10 16 0.00 0.00
3:56 am 03:56 Clear 45 7.2 27 -2.8 49 49 W 10 17 29.80 1009 10 16 0.00 0.00
4:56 am 04:56 Clear 42 5.6 28 -2.2 58 58 WNW 13 20 29.80 1009 10 16 0.00 0.00
5:56 am 05:56 Clear 44 6.7 26 -3.3 49 49 W 10 17 29.81 1010 10 16 0.00 0.00
6:56 am 06:56 Clear 44 6.7 25 -3.9 47 47 W 7 11 29.82 1010 10 16 0.00 0.00
7:56 am 07:56 Sunny 39 3.9 26 -3.3 60 60 WSW 10 17 29.84 1011 10 16 0.00 0.00
8:56 am 08:56 Sunny 42 5.6 27 -2.8 55 55 Calm 29.85 1011 10 16 0.00 0.00
9:56 am 09:56 Sunny 46 7.8 28 -2.2 50 50 SW 5 7 29.84 1010 10 16 0.00 0.00
10:56 am 10:56 Sunny 53 11.7 31 -0.6 43 43 WSW 3 6 29.82 1010 10 16 0.00 0.00
11:56 am 11:56 Sunny 58 14.4 28 -2.2 32 32 NNW 6 9 29.78 1009 10 16 0.00 0.00
12:56 pm 12:56 Sunny 64 17.8 25 -3.9 23 23 SW 6 9 29.74 1007 10 16 0.00 0.00
1:56 pm 13:56 Sunny 64 17.8 29 -1.7 27 27 SSE 6 9 29.71 1006 10 16 0.00 0.00
2:56 pm 14:56 Sunny 64 17.8 32 0 30 30 S 7 11 29.69 1006 10 16 0.00 0.00
3:56 pm 15:56 Sunny 63 17.2 34 1.1 34 34 SE 8 13 29.69 1005 10 16 0.00 0.00
4:56 pm 16:56 Sunny 60 15.6 37 2.8 42 42 ESE 5 7 29.68 1005 10 16 0.00 0.00
5:56 pm 17:56 Clear 47 8.3 38 3.3 71 71 ENE 9 15 29.69 1005 10 16 0.00 0.00
6:56 pm 18:56 Clear 43 6.1 35 1.7 74 74 NNE 13 20 29.70 1006 10 16 0.00 0.00
7:56 pm 19:56 Clear 41 5 35 1.7 79 79 NE 16 26 29.71 1006 10 16 0.00 0.00
8:56 pm 20:56 Clear 39 3.9 34 1.1 82 82 NE 18 30 29.70 1006 10 16 0.00 0.00
9:56 pm 21:56 Clear 36 2.2 33 0.6 89 89 NE 17 28 29.71 1006 10 16 0.00 0.00
10:56 pm 22:56 Clear 34 1.1 32 0 92 92 NE 17 28 29.71 1006 10 16 0.00 0.00
11:56 pm 23:56 Clear 33 0.6 31 -0.6 92 92 NE 23 37 29.68 1005 10 16 0.00 0.00

Powered by AerisWeather